ORBCOMM FM110

Last updated on Wed Aug 19 2026 00:03:10 GMT+0000 (Coordinated Universal Time)

1 41182U 15081D 26230.56121724 .00000367 00000+0 11374-3 0 9996 2 41182 47.0020 66.4995 0002820 356.2642 3.8223 14.58959325566736
UTC large
Height (km)
Speed (km/s)
/
Latitude / Longitude
Inclination (degrees)
Orbital Period (minutes)
Azimuth
Elevation
Range (km)
Doppler Factor

Next 0 passes for location: London (51.5072 / 0.1276)

No passes found over London.
ORBCOMM FM110